Hourly Data Report for October 23, 2015

All times are specified in Local Standard Time (LST). Add 1 hour to adjust for Daylight Saving Time where and when it is observed.

RESOLUTE BAY A
NUNAVUT

74°43'01.000" N
94°58'10.000" W
67.70 m
2403498
71924
YRB

Download Data

Hourly Data (October 2015)
Hourly Data Report for October 23, 2015
Temp Definition
°C
Dew Point Temp Definition
°C
Rel Hum Definition
%
Wind Dir Definition
10's deg

Wind Spd Definition
km/h
Visibility Definition
km
Stn Press Definition
kPa
Hmdx Definition


Wind Chill Definition


Weather Definition


TIME
00:00 Legend Double Dagger -15.5 -17.8 83 36 30 24.1 99.71   -27 Snow
01:00 Legend Double Dagger -16.2 -18.6 82 36 36 24.1 99.77   -29 Snow,Blowing Snow
02:00 Legend Double Dagger -19.9 -22.5 80 36 36 24.1 99.85   -33 Snow,Blowing Snow
03:00 Legend Double Dagger -21.8 -24.2 81 36 34 24.1 99.88   -36 Blowing Snow
04:00 Legend Double Dagger -19.9 -22.5 80 36 40 24.1 99.98   -34 Blowing Snow
05:00 Legend Double Dagger -22.4 -25.1 79 35 35 24.1 100.00   -37 LegendNANA
06:00 Legend Double Dagger -22.1 -24.8 79 35 25 24.1 100.04   -34 Clear
07:00 Legend Double Dagger -21.6 -23.9 82 35 38 24.1 100.05   -36 Ice Crystals
08:00 Legend Double Dagger -22.0 -24.6 80 35 28 16.1 100.12   -35 LegendNANA
09:00 Legend Double Dagger -21.4 -24.0 80 35 35 12.9 100.15   -35 Mainly Clear
10:00 Legend Double Dagger -23.3 -26.1 78 33 18 12.9 100.18   -34 LegendNANA
11:00 Legend Double Dagger -23.3 -26.0 79 33 28 16.1 100.18   -36 LegendNANA
12:00 Legend Double Dagger -22.4 -25.1 79 2 43 16.1 100.11   -38 Clear
13:00 Legend Double Dagger -21.4 -24.7 75 1 33 16.1 100.17   -35 LegendNANA
14:00 Legend Double Dagger -22.2 -25.2 77 1 27 16.1 100.18   -35 LegendNANA
15:00 Legend Double Dagger -21.3 -23.9 80 36 27 16.1 100.15   -34 Mainly Clear
16:00 Legend Double Dagger -18.9 -21.5 80 34 25 16.1 100.14   -30 LegendNANA
17:00 Legend Double Dagger -17.9 -20.3 82 32 29 16.1 100.12   -30 LegendNANA
18:00 Legend Double Dagger -18.6 -20.8 83 33 33 24.1 100.09   -31 Cloudy
19:00 Legend Double Dagger -17.2 -19.4 83 33 34 12.9 100.08   -30 Snow
20:00 Legend Double Dagger -17.4 -19.6 83 32 35 12.9 100.02   -30 Snow
21:00 Legend Double Dagger -17.9 -20.3 82 34 35 12.9 99.97   -31 Snow
22:00 Legend Double Dagger -18.9 -21.3 82 33 26 12.9 99.93   -30 Snow
23:00 Legend Double Dagger -20.2 -22.7 81 35 27 12.9 99.88   -32 Snow

Notes on Data Quality.

Legend

  • E = Estimated
  • M = Missing
  • NA = Not Available
  • ‡ = Partner data that is not subject to review by the National Climate Archives
Date modified: